When you browse on this site, cookies collect data to enhance your experience and personalize the content and advertising you see.
Visit our Privacy Policy to learn more. By continuing to use the site, you agree to this use of cookies and data.
  • în România
  • Lista ţărilor
  • Pe 7 zile
  • Temperatura apei
  • Hartă satelitară
  • Meteo pe hartă
  • Widget-uri
  • user-avatar
    Intrare

    Meteo pe oră la Krivopavlovka

    Astăzi, 25 Martie, Luni

    Timp Temperatura Precipitaţii Vânt Presiune Umiditate
    00:00 -1°C° 0.1 mm 3 m/s 750 mmHg 95%
    01:00 -2°C° 0.2 mm 4 m/s 749 mmHg 94%
    02:00 -3°C° 0.2 mm 6 m/s 749 mmHg 93%
    03:00 -5°C° 0 mm 8 m/s 748 mmHg 90%
    04:00 -6°C° 0.1 mm 8 m/s 748 mmHg 91%
    05:00 -6°C° 0.1 mm 7 m/s 748 mmHg 91%
    06:00 -7°C° 0.1 mm 7 m/s 748 mmHg 91%
    07:00 -6°C° 0 mm 7 m/s 748 mmHg 90%
    08:00 -4°C° 0 mm 6 m/s 748 mmHg 90%
    09:00 -3°C° 0 mm 7 m/s 748 mmHg 89%
    10:00 -2°C° 0 mm 6 m/s 748 mmHg 92%
    11:00 -2°C° 0 mm 6 m/s 749 mmHg 95%
    12:00 -1°C° 0 mm 6 m/s 749 mmHg 98%
    13:00 -1°C° 0 mm 6 m/s 750 mmHg 97%
    14:00 -1°C° 0 mm 6 m/s 750 mmHg 96%
    15:00 -1°C° 0 mm 6 m/s 750 mmHg 94%
    16:00 -2°C° 0 mm 6 m/s 751 mmHg 92%
    17:00 -1°C° 0 mm 5 m/s 752 mmHg 90%
    18:00 -1°C° 0 mm 5 m/s 752 mmHg 89%
    19:00 -2°C° 0 mm 5 m/s 753 mmHg 89%
    20:00 -2°C° 0 mm 5 m/s 753 mmHg 90%
    21:00 -2°C° 0 mm 4 m/s 754 mmHg 90%
    22:00 -3°C° 0 mm 4 m/s 755 mmHg 91%
    23:00 -4°C° 0 mm 4 m/s 755 mmHg 91%

    Mâine, 26 Martie, Marţi

    Timp Temperatura Precipitaţii Vânt Presiune Umiditate
    00:00 -5°C° 0 mm 3 m/s 756 mmHg 91%
    01:00 -6°C° 0 mm 3 m/s 756 mmHg 90%
    02:00 -6°C° 0 mm 3 m/s 756 mmHg 89%
    03:00 -7°C° 0 mm 3 m/s 757 mmHg 88%
    04:00 -5°C° 0 mm 2 m/s 757 mmHg 87%
    05:00 -5°C° 0 mm 2 m/s 757 mmHg 86%
    06:00 -5°C° 0 mm 2 m/s 757 mmHg 84%
    07:00 -4°C° 0 mm 2 m/s 757 mmHg 85%
    08:00 -2°C° 0 mm 3 m/s 757 mmHg 85%
    09:00 -1°C° 0 mm 3 m/s 757 mmHg 85%
    10:00 -1°C° 0 mm 4 m/s 757 mmHg 90%
    11:00 -1°C° 0 mm 4 m/s 756 mmHg 94%
    12:00 0°C° 0 mm 5 m/s 756 mmHg 99%
    13:00 0°C° 0.7 mm 5 m/s 755 mmHg 99%
    14:00 0°C° 0.7 mm 5 m/s 755 mmHg 99%
    15:00 +1°C° 0.7 mm 6 m/s 754 mmHg 99%
    16:00 +1°C° 0.4 mm 6 m/s 754 mmHg 99%
    17:00 +1°C° 0.4 mm 6 m/s 754 mmHg 98%
    18:00 +1°C° 0.4 mm 6 m/s 754 mmHg 97%
    19:00 +1°C° 0 mm 5 m/s 754 mmHg 96%
    20:00 +1°C° 0 mm 4 m/s 755 mmHg 95%
    21:00 +1°C° 0 mm 3 m/s 755 mmHg 94%
    22:00 +1°C° 0 mm 3 m/s 755 mmHg 94%
    23:00 +1°C° 0 mm 3 m/s 756 mmHg 94%

    Poimâine, 27 Martie, Miercuri

    Timp Temperatura Precipitaţii Vânt Presiune Umiditate
    00:00 +2°C° 0 mm 2 m/s 756 mmHg 94%
    01:00 +2°C° 0.2 mm 2 m/s 756 mmHg 95%
    02:00 +2°C° 0.2 mm 2 m/s 756 mmHg 96%
    03:00 +2°C° 0.2 mm 2 m/s 756 mmHg 97%
    04:00 +2°C° 0.8 mm 2 m/s 755 mmHg 98%
    05:00 +2°C° 0.8 mm 2 m/s 755 mmHg 98%
    06:00 +1°C° 0.8 mm 3 m/s 755 mmHg 98%
    07:00 +1°C° 0.9 mm 3 m/s 755 mmHg 98%
    08:00 0°C° 0.9 mm 4 m/s 755 mmHg 97%
    09:00 0°C° 0.9 mm 4 m/s 754 mmHg 97%
    10:00 0°C° 0.9 mm 5 m/s 755 mmHg 97%
    11:00 0°C° 0.9 mm 5 m/s 755 mmHg 98%
    12:00 0°C° 0.9 mm 5 m/s 755 mmHg 98%
    13:00 0°C° 0.9 mm 4 m/s 755 mmHg 98%
    14:00 +1°C° 0.9 mm 3 m/s 755 mmHg 98%
    15:00 +1°C° 0.9 mm 3 m/s 755 mmHg 99%
    16:00 +1°C° 0.7 mm 3 m/s 755 mmHg 99%
    17:00 +2°C° 0.7 mm 2 m/s 755 mmHg 98%
    18:00 +2°C° 0.7 mm 2 m/s 755 mmHg 98%
    19:00 +2°C° 0.5 mm 2 m/s 755 mmHg 97%
    20:00 +1°C° 0.5 mm 3 m/s 756 mmHg 96%
    21:00 0°C° 0.5 mm 3 m/s 756 mmHg 95%
    22:00 -1°C° 0.3 mm 4 m/s 756 mmHg 94%
    23:00 -1°C° 0.3 mm 4 m/s 756 mmHg 93%

    28 Martie, Joi

    Timp Temperatura Precipitaţii Vânt Presiune Umiditate
    00:00 -1°C° 0.3 mm 4 m/s 756 mmHg 92%
    01:00 -2°C° 0 mm 4 m/s 756 mmHg 91%
    02:00 -3°C° 0 mm 4 m/s 756 mmHg 90%
    03:00 -4°C° 0 mm 4 m/s 756 mmHg 89%
    04:00 -5°C° 0 mm 4 m/s 757 mmHg 89%
    05:00 -7°C° 0 mm 4 m/s 757 mmHg 89%
    06:00 -8°C° 0 mm 4 m/s 757 mmHg 89%
    07:00 -5°C° 0 mm 4 m/s 757 mmHg 87%
    08:00 -4°C° 0 mm 4 m/s 757 mmHg 86%
    09:00 -3°C° 0 mm 4 m/s 758 mmHg 85%
    10:00 -3°C° 0 mm 4 m/s 758 mmHg 85%
    11:00 -2°C° 0 mm 4 m/s 758 mmHg 86%
    12:00 -1°C° 0 mm 4 m/s 758 mmHg 86%
    13:00 -1°C° 0 mm 5 m/s 758 mmHg 86%
    14:00 -1°C° 0 mm 5 m/s 758 mmHg 86%
    15:00 -1°C° 0 mm 5 m/s 758 mmHg 85%
    16:00 -2°C° 0 mm 4 m/s 759 mmHg 86%
    17:00 -3°C° 0 mm 4 m/s 759 mmHg 86%
    18:00 -3°C° 0 mm 4 m/s 759 mmHg 87%
    19:00 -4°C° 0 mm 3 m/s 759 mmHg 87%
    20:00 -4°C° 0 mm 3 m/s 759 mmHg 87%
    21:00 -5°C° 0 mm 3 m/s 760 mmHg 87%
    22:00 -5°C° 0 mm 3 m/s 760 mmHg 87%
    23:00 -5°C° 0 mm 4 m/s 759 mmHg 87%

    29 Martie, Vineri

    Timp Temperatura Precipitaţii Vânt Presiune Umiditate
    00:00 -5°C° 0 mm 4 m/s 759 mmHg 87%
    01:00 -5°C° 0 mm 4 m/s 759 mmHg 89%
    02:00 -5°C° 0 mm 4 m/s 759 mmHg 90%
    03:00 -5°C° 0 mm 4 m/s 759 mmHg 92%
    04:00 -5°C° 0 mm 4 m/s 759 mmHg 92%
    05:00 -5°C° 0 mm 4 m/s 759 mmHg 91%
    06:00 -5°C° 0 mm 4 m/s 759 mmHg 91%
    07:00 -4°C° 0 mm 4 m/s 759 mmHg 90%
    08:00 -5°C° 0 mm 5 m/s 758 mmHg 89%
    09:00 -4°C° 0 mm 5 m/s 758 mmHg 88%
    10:00 -4°C° 0 mm 5 m/s 758 mmHg 86%
    11:00 -2°C° 0 mm 5 m/s 757 mmHg 84%
    12:00 -3°C° 0 mm 6 m/s 757 mmHg 82%
    13:00 -2°C° 0 mm 6 m/s 756 mmHg 81%
    14:00 -2°C° 0 mm 6 m/s 755 mmHg 80%
    15:00 -1°C° 0 mm 6 m/s 755 mmHg 79%
    16:00 -2°C° 0.1 mm 6 m/s 754 mmHg 79%
    17:00 -2°C° 0.1 mm 6 m/s 753 mmHg 80%
    18:00 -2°C° 0.1 mm 6 m/s 752 mmHg 80%
    19:00 -2°C° 0.2 mm 6 m/s 751 mmHg 82%
    20:00 -2°C° 0.2 mm 6 m/s 751 mmHg 84%
    21:00 -2°C° 0.2 mm 6 m/s 750 mmHg 87%
    22:00 -1°C° 0.3 mm 5 m/s 750 mmHg 89%
    23:00 -1°C° 0.3 mm 5 m/s 749 mmHg 90%

    30 Martie, Sâmbătă

    Timp Temperatura Precipitaţii Vânt Presiune Umiditate
    00:00 -1°C° 0.3 mm 4 m/s 749 mmHg 92%
    01:00 0°C° 0 mm 3 m/s 749 mmHg 93%
    02:00 -1°C° 0 mm 2 m/s 749 mmHg 94%
    03:00 +1°C° 0 mm 1 m/s 749 mmHg 95%
    04:00 -1°C° 0 mm 2 m/s 749 mmHg 95%
    05:00 -1°C° 0 mm 2 m/s 750 mmHg 95%
    06:00 -1°C° 0 mm 2 m/s 751 mmHg 95%
    07:00 0°C° 0 mm 3 m/s 751 mmHg 96%
    08:00 0°C° 0 mm 3 m/s 752 mmHg 96%
    09:00 0°C° 0 mm 3 m/s 752 mmHg 97%
    10:00 +1°C° 0 mm 3 m/s 753 mmHg 97%
    11:00 +1°C° 0 mm 3 m/s 753 mmHg 97%
    12:00 +1°C° 0 mm 3 m/s 754 mmHg 97%
    13:00 +1°C° 0 mm 3 m/s 754 mmHg 96%
    14:00 +1°C° 0 mm 3 m/s 755 mmHg 96%
    15:00 +1°C° 0 mm 3 m/s 755 mmHg 96%
    16:00 +1°C° 0 mm 3 m/s 756 mmHg 96%
    17:00 +1°C° 0 mm 3 m/s 756 mmHg 96%
    18:00 0°C° 0 mm 3 m/s 757 mmHg 95%
    19:00 0°C° 0 mm 3 m/s 757 mmHg 95%
    20:00 +1°C° 0 mm 2 m/s 757 mmHg 94%
    21:00 -1°C° 0 mm 2 m/s 758 mmHg 93%
    22:00 -1°C° 0 mm 2 m/s 758 mmHg 93%
    23:00 -2°C° 0 mm 2 m/s 758 mmHg 92%
    Arată mai mult